Regional Weather Roundup
Issued by NWS

Home | Current Version | Previous Version | Graphics & Text | Print | Product List | Glossary On
Versions: 1 2 3 4 5 6 7 8 9 10 11 12 13 14 15 16 17 18 19 20 21 22 23 24 25 26 27 28 29 30 31 32 33 34 35 36 37 38 39 40 41 42 43 44 45 46 47 48 49 50
000
ASUS43 KFSD 231702
RWRSD

WEATHER ROUNDUP FOR SOUTH DAKOTA
NATIONAL WEATHER SERVICE SIOUX FALLS SD
1200 PM CDT SAT MAY 23 2015

NOTE: "FAIR" INDICATES FEW OR NO CLOUDS BELOW 12,000 FEET WITH NO
SIGNIFICANT WEATHER AND/OR OBSTRUCTIONS TO VISIBILITY.


SDZ001>005-009-010-012>017-231800-
NORTHWEST AND NORTH CENTRAL SOUTH DAKOTA

CITY           SKY/WX    TMP DP  RH WIND       PRES   REMARKS
FAITH            N/A     53  45  74 SE15      30.09F
MOBRIDGE       CLOUDY    60  50  69 S14       30.11F
$$

SDZ012>016-024>037-041>051-057-063-072>074-231800-
SOUTHWEST AND SOUTH CENTRAL SOUTH DAKOTA

CITY           SKY/WX    TMP DP  RH WIND       PRES   REMARKS
RAPID CTY ARPT CLOUDY    52  45  77 SE9       30.07S
PIERRE         CLOUDY    53  50  89 SE14      30.11S
CUSTER         CLOUDY    48  43  82 VRB5      30.07R
ELLSWORTH AFB  CLOUDY    53  47  78 S12       30.06F
PHILIP         CLOUDY    54  49  83 E12       30.09R
PINE RIDGE     CLOUDY    55  48  77 SE12      30.06S
WINNER         CLOUDY    56  52  86 SE9       30.12S
$$

SDZ004>011-016>023-039-040-231800-
NORTHEAST SOUTH DAKOTA

CITY           SKY/WX    TMP DP  RH WIND       PRES   REMARKS
ABERDEEN       CLOUDY    63  45  51 S15       30.17F
WATERTOWN      CLOUDY    63  45  51 SE15G22   30.18F
BROOKINGS      CLOUDY    63  45  51 SE15G22   30.19F
$$

SDZ017-020-022-023-036>040-048>070-231800-
SOUTHEAST SOUTH DAKOTA

CITY           SKY/WX    TMP DP  RH WIND       PRES   REMARKS
SIOUX FALLS    CLOUDY    62  50  64 SE14      30.17F
HURON          CLOUDY    62  50  64 SE10      30.14F
CHAMBERLAIN    RAIN      54  52  95 SE9       30.13S
MITCHELL       CLOUDY    64  50  60 SE15G23   30.15F
YANKTON        CLOUDY    61  50  67 SE14      30.15F
$$

ABBREVIATIONS USED IN REMARKS
   TC - TEMPERATURE IN CELSIUS
  WCI - WIND CHILL INDEX
   HX - HEAT INDEX
  VSB - VISIBILITY



USA.gov is the U.S. government's official web portal to all federal, state and local government web resources and services.